SCP
1 1 1 1 1 1 0 0 0 0 0 0 0 0 0 0 0 0 0 0 0 0 0 0 0 0 0 0 0 0 0 0 0 0 0 0 0 0 0 0 0 0 0
1 1 1 1 1 1 0 0 0 0 0 0 0 0 0 0 0 0 0 0 0 0 0 0 0 0 0 0 0 0 0 0 0 0 0 0 0 0 0 0 0 0 0
1 1 1 1 1 1 0 0 0 0 0 0 0 0 0 0 0 0 0 0 0 0 0 0 0 0 0 0 0 0 0 0 0 0 0 0 0 0 0 0 0 0 0
1 1 1 1 1 1 0 0 0 0 0 0 0 0 0 0 0 0 0 0 0 0 0 0 0 0 0 0 0 0 0 0 0 0 0 0 0 0 0 0 0 0 0
1 1 1 1 1 1 0 0 0 0 0 0 0 0 0 0 0 0 0 0 0 0 0 0 0 0 0 0 0 0 0 0 0 0 0 0 0 0 0 0 0 0 0
1 1 1 1 1 1 0 0 0 0 0 0 0 0 0 0 0 0 0 0 0 0 0 0 0 0 0 0 0 0 0 0 0 0 0 0 0 0 0 0 0 0 0
1 1 1 1 1 0 0 0 0 0 0 0 0 0 0 0 0 0 0 0 0 0 0 0 0 0 0 0 0 0 0 0 0 0 0 0 0 0 0 0 0 0 0
1 1 1 1 1 0 0 0 0 0 0 0 0 0 0 0 0 0 0 0 0 0 0 0 0 0 0 0 0 0 0 0 0 0 0 0 0 0 0 0 0 0 0
2 1 1 1 0 0 0 0 0 0 0 0 0 0 0 0 0 0 0 0 0 0 0 0 0 0 0 0 0 0 0 0 0 0 0 0 0 0 0 0 0 0 0
2 1 1 1 0 0 0 0 0 0 0 0 0 0 0 0 0 0 0 0 0 0 0 0 0 0 0 0 0 0 0 0 0 0 0 0 0 0 0 0 0 0 0
1 1 1 1 1 0 0 0 0 0 0 0 0 0 0 0 0 0 0 0 0 0 0 0 0 0 0 0 0 0 0 0 0 0 0 0 0 0 0 0 0 0 0
1 1 1 1 1 0 0 0 0 0 0 0 0 0 0 0 0 0 0 0 0 0 0 0 0 0 0 0 0 0 0 0 0 0 0 0 0 0 0 0 0 0 0
2 1 1 1 1 0 0 0 0 0 0 0 0 0 0 0 0 0 0 0 0 0 0 0 0 0 0 0 0 0 0 0 0 0 0 0 0 0 0 0 0 0 0
2 2 1 1 1 0 0 0 0 0 0 0 0 0 0 0 0 0 0 0 0 0 0 0 0 0 0 0 0 0 0 0 0 0 0 0 0 0 0 0 0 0 0
3 2 1 1 1 1 0 0 0 0 0 0 0 0 0 0 0 0 0 0 0 0 0 0 0 0 0 0 0 0 0 0 0 0 0 0 0 0 0 0 0 0 0
3 3 2 2 1 1 1 0 0 0 0 0 0 0 0 0 0 0 0 0 0 0 0 0 0 0 0 0 0 0 0 0 0 0 0 0 0 0 0 0 0 0 0
4 4 3 2 1 1 1 1 0 0 0 0 0 0 0 0 0 0 0 0 0 0 0 0 0 0 0 0 0 0 0 0 0 0 0 0 0 0 0 0 0 0 0
3 3 3 3 2 2 1 1 1 0 0 0 0 0 0 0 0 0 0 0 0 0 0 0 0 0 0 0 0 0 0 0 0 0 0 0 0 0 0 0 0 0 0
2 2 3 3 3 2 1 1 1 1 1 0 0 0 0 0 0 0 0 0 0 0 0 0 0 0 0 0 0 0 0 0 0 0 0 0 0 0 0 0 0 0 0
2 2 2 3 3 2 1 1 1 1 1 1 1 1 1 1 0 0 0 0 0 0 0 0 0 0 0 0 0 0 0 0 0 0 0 0 0 0 0 0 0 0 0
2 2 2 2 2 2 2 2 1 1 1 1 1 1 1 1 1 0 0 0 0 0 0 0 0 0 0 0 0 0 0 0 0 0 0 0 0 0 0 0 0 0 0
1 1 2 2 2 2 2 2 2 2 2 2 2 1 1 1 1 1 1 0 1 1 0 0 0 0 0 0 0 0 0 0 0 0 0 0 0 0 0 0 0 0 0
1 1 2 2 2 2 2 3 3 3 2 2 2 1 1 1 1 1 0 0 0 0 0 0 0 0 0 0 0 0 0 0 0 0 0 0 0 0 0 0 0 0 0
1 1 2 2 2 2 3 3 3 3 3 2 2 1 1 1 1 0 0 0 0 0 0 0 0 0 0 0 0 0 0 0 0 0 0 0 0 0 0 0 0 0 0
1 1 2 2 2 2 2 3 3 3 3 2 2 1 1 1 0 0 0 0 0 0 0 0 0 0 0 0 0 0 0 0 0 0 0 0 0 0 0 0 0 0 0
1 1 1 2 2 2 2 3 3 3 3 2 2 1 1 0 0 0 0 0 0 0 0 0 0 0 0 0 0 0 0 0 0 0 0 0 0 0 0 0 0 0 0
Wind_Speed
9 11 17 18 17 16 15 14 14 14 14 14 15 15 16 16 17 18 18 18 18 18 18 18 17 17 16 16 15 15 15 15 15 15 14 14 14 15 15 14 12 8 14
12 13 18 18 17 16 15 15 14 14 14 15 15 16 16 16 17 18 18 18 18 18 17 17 16 16 15 14 14 13 12 11 11 12 11 10 11 14 14 13 12 8 13
16 14 16 17 17 16 15 15 15 14 15 15 15 15 16 17 17 17 17 17 17 17 16 16 15 14 14 13 12 11 10 10 10 9 8 5 7 13 13 12 12 13 12
15 13 13 17 17 17 16 15 15 15 15 15 15 15 16 16 16 16 16 16 16 16 15 15 14 13 12 11 11 11 11 10 10 9 5 4 5 11 12 12 12 12 12
12 11 14 18 17 17 16 15 15 15 15 15 15 15 16 16 16 16 16 15 15 14 14 13 12 11 10 10 10 11 11 10 10 8 4 4 4 10 11 11 11 11 11
10 9 13 17 17 16 16 15 16 15 15 15 15 15 15 16 15 15 15 14 13 13 12 12 11 10 9 9 9 10 10 10 8 4 4 3 3 8 10 10 10 10 10
11 10 13 17 17 16 15 15 16 16 15 15 15 15 15 15 15 14 13 13 12 12 11 10 9 8 7 7 8 9 9 7 4 3 3 2 4 8 9 9 9 9 9
12 10 12 16 15 15 15 15 15 16 15 14 15 15 15 14 14 13 12 12 11 11 10 9 8 7 5 5 6 6 6 5 4 3 2 2 4 7 7 7 7 8 8
11 10 8 9 10 13 13 12 13 14 14 13 14 14 13 12 12 12 11 10 10 9 8 7 6 4 3 2 3 4 4 3 2 1 1 1 3 5 5 5 6 6 6
11 9 8 7 7 7 7 11 12 12 12 12 12 11 11 10 9 10 8 8 8 7 6 5 4 2 0 2 3 4 4 2 0 1 1 3 5 4 4 4 4 4 4
11 10 9 8 7 6 6 8 9 11 11 10 9 11 9 5 5 5 6 7 7 6 6 4 3 2 2 3 5 5 3 1 1 1 2 5 6 5 4 3 2 2 2
12 11 9 9 8 7 6 6 5 5 6 5 5 6 4 4 3 5 6 7 6 5 5 5 4 3 3 2 4 5 2 2 2 2 3 8 7 6 5 5 4 3 2
11 10 10 9 9 7 5 5 3 3 3 4 5 5 4 3 3 3 2 3 3 3 2 3 3 2 2 3 3 3 3 2 2 3 4 9 9 8 7 6 6 6 5
11 10 10 10 9 8 6 5 4 4 3 3 5 5 4 3 3 3 2 3 2 2 2 2 2 3 4 4 4 4 4 3 3 3 4 10 10 10 9 8 8 8 8
12 11 11 11 10 8 7 5 6 5 5 5 4 5 5 4 4 3 3 3 3 3 3 3 3 4 4 4 4 4 4 4 4 4 3 9 11 11 11 10 9 9 9
12 12 11 11 10 9 7 6 5 5 5 5 4 5 6 5 4 4 3 3 3 3 3 3 4 3 3 2 3 3 3 3 3 4 4 5 10 11 11 11 11 10 9
11 12 12 11 10 9 8 7 5 5 5 5 4 5 5 5 5 4 3 3 3 3 3 2 2 1 1 1 2 3 3 3 4 4 4 3 4 8 11 12 11 9 8
9 10 11 10 10 8 7 6 4 4 5 4 4 4 5 5 5 4 3 2 2 2 1 1 1 1 1 2 2 3 3 3 4 4 4 3 3 3 5 8 8 7 6
10 10 10 9 10 9 7 5 4 4 4 4 4 3 4 4 4 4 3 2 2 1 1 1 1 1 2 2 3 3 3 3 4 4 4 4 3 3 2 3 3 2 2
8 9 9 9 9 8 5 4 3 3 3 3 3 3 4 3 4 3 2 2 1 1 1 1 1 1 2 2 3 3 3 4 4 4 4 3 2 1 1 1 1 2 4
7 8 9 9 9 7 5 5 4 4 3 3 3 4 4 4 4 3 2 2 1 1 1 1 1 1 2 1 1 3 3 3 3 3 2 1 1 1 2 2 3 3 3
9 9 9 9 9 8 6 4 3 3 3 3 2 3 3 4 4 3 3 2 1 1 1 0 0 0 1 0 1 1 3 4 3 3 3 2 2 2 4 4 4 4 3
8 10 9 9 9 9 7 4 3 3 2 2 2 2 2 4 4 4 3 3 2 2 1 0 0 1 1 1 1 2 1 2 2 2 3 4 4 4 3 4 5 5 5
9 8 8 8 8 7 8 8 8 6 5 5 4 3 3 4 4 4 4 3 2 2 2 1 1 0 1 1 1 2 3 2 2 2 2 3 4 5 4 4 5 5 5
7 6 6 6 7 7 8 9 8 5 4 3 4 5 3 3 4 4 4 3 3 2 2 1 1 1 0 1 1 1 1 2 3 3 2 1 2 3 4 4 4 4 5
4 5 5 7 6 5 6 7 8 8 7 7 6 5 4 3 3 3 4 3 3 2 2 1 1 1 0 0 1 1 1 2 2 2 3 2 1 1 3 4 4 3 4
Wind_Direction
151 154 147 143 138 133 128 124 121 116 110 106 102 99 98 98 100 101 102 101 100 99 97 95 94 93 93 92 90 87 84 80 75 71 66 65 67 68 69 66 62 57 64
145 150 146 144 139 134 130 126 124 119 113 110 107 104 103 102 101 101 101 101 100 99 97 96 95 95 94 93 90 87 85 83 79 71 61 57 65 67 67 64 63 62 63
143 146 145 143 138 134 131 129 127 122 117 113 111 108 106 105 102 101 101 100 99 98 97 96 96 96 94 91 86 81 81 84 84 74 64 48 61 68 67 64 60 59 61
142 143 144 142 138 136 134 134 131 125 121 118 114 111 109 107 105 104 102 101 100 99 99 98 97 96 92 86 79 75 78 86 87 82 65 51 55 67 65 62 59 58 60
138 140 144 141 139 138 137 136 132 128 124 122 119 115 112 110 109 108 106 105 103 103 102 101 98 94 88 81 73 71 74 87 91 85 78 66 56 70 66 61 57 57 58
133 137 144 140 140 139 139 138 135 131 128 126 124 120 117 115 113 112 110 108 107 106 104 102 99 93 84 75 68 66 76 90 89 86 85 77 68 74 70 65 61 58 56
135 139 143 141 141 141 142 141 138 135 133 131 129 125 123 120 119 117 116 114 112 111 109 107 104 97 86 74 65 65 72 81 84 87 93 88 83 79 73 68 63 59 57
140 141 144 143 142 143 144 142 141 139 137 134 133 130 128 127 125 124 123 122 120 118 115 113 109 102 88 72 60 57 59 69 85 92 104 111 102 89 80 74 67 61 58
141 139 139 140 141 144 143 142 142 141 139 136 136 135 133 132 131 130 130 129 127 125 123 122 119 112 95 59 37 31 35 53 100 157 166 167 131 109 95 85 76 66 62
143 141 137 136 135 136 139 142 140 140 140 141 138 136 136 138 138 137 137 139 140 139 140 143 145 146 118 333 337 348 0 32 111 214 200 193 170 142 125 109 95 80 71
149 147 143 141 139 138 141 143 140 141 143 142 142 146 141 139 141 145 154 156 158 161 166 174 191 222 271 302 308 316 334 340 257 237 223 211 193 179 168 158 144 122 99
160 158 154 152 150 151 151 140 140 143 147 145 150 154 150 153 165 168 175 179 181 185 196 211 228 252 275 297 301 307 299 278 245 237 230 222 211 207 204 201 200 203 199
163 164 163 160 159 160 149 153 152 149 155 158 163 167 165 166 174 172 173 190 199 207 225 253 266 264 262 267 276 277 270 261 240 241 235 225 220 221 223 222 222 225 228
164 170 169 165 166 165 159 164 163 162 168 174 181 179 171 172 178 178 186 195 202 209 224 244 250 257 260 260 257 261 263 255 244 239 239 233 231 231 233 234 235 236 237
170 174 172 168 170 169 167 172 173 177 182 185 184 187 181 176 182 187 196 201 208 209 215 230 241 252 256 256 250 246 250 253 251 243 244 240 239 239 241 242 244 245 247
177 174 170 171 173 170 173 176 176 181 183 182 185 186 181 176 176 178 190 198 209 210 212 215 225 236 247 251 261 258 256 261 260 258 249 248 244 243 245 247 250 254 257
174 172 171 174 175 176 176 176 174 173 172 176 182 180 176 173 172 170 177 190 208 209 208 214 233 237 259 269 276 282 280 278 277 273 263 248 249 246 247 253 257 258 263
171 171 173 173 172 180 182 176 170 170 167 172 172 170 171 171 166 161 167 189 202 191 184 201 222 248 270 278 284 288 289 289 286 279 271 259 248 249 247 249 256 264 275
177 170 171 170 172 177 182 177 170 164 163 164 161 162 167 166 163 156 166 187 183 168 182 206 209 213 255 276 279 278 280 278 277 277 274 268 251 235 229 238 245 267 308
181 173 172 169 172 171 171 164 159 151 160 157 160 163 161 159 157 149 153 169 154 154 203 223 235 237 240 260 279 283 277 275 275 273 273 275 264 233 190 143 112 79 60
177 178 178 174 175 169 168 174 172 175 172 165 165 160 156 150 147 140 140 137 129 150 198 229 232 257 269 272 302 309 304 294 300 301 297 301 353 75 89 90 87 83 68
184 184 185 185 179 178 177 177 173 162 161 160 154 141 145 143 139 136 137 135 129 133 117 74 130 208 266 220 176 310 321 332 339 357 9 35 42 60 68 68 76 76 71
193 192 189 187 181 179 168 150 128 113 107 134 151 142 143 138 129 124 125 122 113 122 130 97 88 170 260 286 197 196 233 267 305 333 20 34 43 54 55 59 65 66 66
200 193 190 184 179 176 166 165 167 173 183 187 167 154 139 126 119 115 112 110 108 108 111 91 79 141 200 254 281 242 224 217 242 299 342 31 42 46 42 51 58 59 55
196 185 182 177 177 175 175 178 176 177 173 144 134 142 135 116 111 110 109 108 105 97 93 77 67 53 173 217 234 263 265 250 225 226 256 296 42 42 43 47 53 53 48
180 172 169 167 174 172 172 174 175 171 161 152 156 158 149 129 107 107 107 106 102 96 86 74 64 64 53 241 241 239 236 238 229 221 235 229 186 84 58 44 45 46 42